This is the latest recevied weather packets stored in our database for station/object KA1JKB. If no packets are shown the sender has not sent any weather packets the latest 10 day(s).
| Time | Temp. | Humidity | Pressure | Rain* | Wind** | Luminosity | Snow |
|---|---|---|---|---|---|---|---|
| 1777769682 | 5° C | 62% | 1013.4 hPa | 0 mm | - | 0 W/m² | - |
| 1777769378 | 5.56° C | 61% | 1013.1 hPa | 0 mm | - | 0 W/m² | - |
| 1777769075 | 6.11° C | 59% | 1013.3 hPa | 0 mm | - | 0 W/m² | - |
| 1777768773 | 6.11° C | 57% | 1013.3 hPa | 0 mm | - | 1 W/m² | - |
| 1777768469 | 6.67° C | 57% | 1013.2 hPa | 0 mm | - | 3 W/m² | - |
| 1777768167 | 7.22° C | 54% | 1013.3 hPa | 0 mm | - | 6 W/m² | - |
| 1777767864 | 7.22° C | 52% | 1013.3 hPa | 0 mm | - | 9 W/m² | - |
| 1777767560 | 7.78° C | 55% | 1013.4 hPa | 0 mm | - | 12 W/m² | - |
| 1777767256 | 7.78° C | 53% | 1013.1 hPa | 0 mm | - | 17 W/m² | - |
| 1777766954 | 8.33° C | 49% | 1013.2 hPa | 0 mm | - | 25 W/m² | - |
| 1777766651 | 8.33° C | 48% | 1013.2 hPa | 0 mm | - | 28 W/m² | - |
| 1777766348 | 8.33° C | 51% | 1013.3 hPa | 0 mm | - | 33 W/m² | - |
| 1777766045 | 8.33° C | 52% | 1013.1 hPa | 0 mm | - | 41 W/m² | - |
| 1777765742 | 8.33° C | 50% | 1013.2 hPa | 0 mm | - | 45 W/m² | - |
| 1777765439 | 8.33° C | 51% | 1013.2 hPa | 0 mm | - | 45 W/m² | - |
| 1777765136 | 8.33° C | 51% | 1013.2 hPa | 0 mm | - | 46 W/m² | - |
| 1777764832 | 8.33° C | 52% | 1013.3 hPa | 0 mm | - | 52 W/m² | - |
| 1777764529 | 8.33° C | 51% | 1013.3 hPa | 0 mm | - | 58 W/m² | - |
| 1777764225 | 8.33° C | 49% | 1013.3 hPa | 0 mm | - | 61 W/m² | - |
| 1777763922 | 8.33° C | 50% | 1013.4 hPa | 0 mm | - | 63 W/m² | - |
| 1777763620 | 8.33° C | 50% | 1013.4 hPa | 0 mm | - | 59 W/m² | - |
| 1777763318 | 8.33° C | 51% | 1013.5 hPa | 0 mm | - | 79 W/m² | - |
| 1777763016 | 8.89° C | 49% | 1013.4 hPa | 0 mm | - | 103 W/m² | - |
| 1777762712 | 8.33° C | 51% | 1013.5 hPa | 0 mm | - | 117 W/m² | - |
| 1777762409 | 8.33° C | 50% | 1013.7 hPa | 0 mm | - | 85 W/m² | - |
* Rain latest hour (hover to see other rain measurements)
** Current wind speed in m/s (hover to see current wind gust speed)